Location: Kolin
(50.0330°N, 15.2000°E)
Time: 12:29:16
(UTC+02:00)

Gurwin Techsat 1B - Pass Details

Date: 19 August 2022
Orbit: 811 x 813 km, 98.9° (Epoch: 23 September)

Event Time Altitude Azimuth Distance (km) Brightness Sun altitude
Rises 03:24:28 0° 17° (NNE) 3,351 13.1 -19.9°
Reaches altitude 10° 03:26:52 10° 21° (NNE) 2,415 12.2 -19.7°
Maximum altitude 03:32:09 61° 102° (ESE) 925 9.0 -19.2°
Enters shadow 03:35:23 23° 176° (S) 1,650 9.8 -18.8°
